Plainview, TX

9:34 AM CST on December 16, 2017 (GMT -0600)
Hale County

Weather History for KPVW - May, 2013

Change the Weather History Date:

Friday, May 3, 2013

  Actual Average Record
Temperature  
Mean Temperature 47 °F -  
Max Temperature 70 °F 74 °F 96 °F (1940)
Min Temperature 24 °F 47 °F 24 °F (2013)
Degree Days  
Heating Degree Days 18    
Moisture  
Dew Point 16 °F    
Average Humidity 33    
Maximum Humidity 71    
Minimum Humidity 12    
Precipitation  
Precipitation 0.00 in - - ()
Sea Level Pressure  
Sea Level Pressure 30.24 in    
Wind  
Wind Speed 8 mph (WNW)    
Max Wind Speed 17 mph    
Max Gust Speed 25 mph    
Visibility 10 miles    
Events      
Averages and records for this station are not official NWS values.
T = Trace of Precipitation, MM = Missing Value Source: NWS Daily Summary

Daily Weather History Graph

Daily Weather History Graph

Search for Another Location

Airport or City:

Trip Planner

Search our weather history database for the weather conditions in past years. The results will help you decide how hot, cold, wet, or windy it might be!

Date:

Astronomy

May. 03, 2013 Rise Set
Actual Time 6:55 AM CDT 8:32 PM CDT
Civil Twilight 6:28 AM CDT 8:59 PM CDT
Nautical Twilight 5:55 AM CDT 9:32 PM CDT
Astronomical Twilight 5:21 AM CDT 10:06 PM CDT
Moon 3:03 AM CDT (5/3) 2:45 PM CDT (5/3)
Length of Visible Light 14h 31m
Length of Day
13h 37m
Last Quarter, 37% of the Moon is Illuminated
May 3
Last Quarter
May 9
New
May 17
First Quarter
May 24
Full
May 31
Last Quarter

Hourly Weather History & Observations

Time (CDT) Temp. Windchill Dew Point Humidity Pressure Visibility Wind Dir Wind Speed Gust Speed Precip Events Conditions
12:15 AM 34.7 °F 28.8 °F 16.3 °F 47% 30.47 in 10.0 mi North 6.9 mph - N/A   Clear
12:35 AM 34.7 °F 28.1 °F 16.5 °F 48% 30.47 in 10.0 mi North 8.1 mph - N/A   Clear
12:55 AM 34.7 °F 28.8 °F 18.5 °F 52% 30.46 in 10.0 mi North 6.9 mph - N/A   Clear
1:15 AM 34.7 °F 29.6 °F 18.1 °F 51% 30.47 in 10.0 mi North 5.8 mph - N/A   Clear
1:35 AM 32.9 °F 28.5 °F 16.7 °F 51% 30.47 in 10.0 mi North 4.6 mph - N/A   Clear
1:55 AM 31.5 °F - 15.6 °F 52% 30.45 in 10.0 mi Calm Calm - N/A   Clear
2:15 AM 30.0 °F 21.7 °F 17.6 °F 60% 30.46 in 10.0 mi West 9.2 mph - N/A   Clear
2:35 AM 28.4 °F 22.2 °F 17.2 °F 63% 30.45 in 10.0 mi WNW 5.8 mph - N/A   Clear
3:15 AM 30.0 °F 23.2 °F 17.8 °F 60% 30.42 in 10.0 mi NW 6.9 mph - N/A   Clear
3:35 AM 30.0 °F 23.2 °F 18.0 °F 61% 30.42 in 10.0 mi WNW 6.9 mph - N/A   Clear
3:55 AM 27.5 °F 21.1 °F 16.7 °F 64% 30.42 in 10.0 mi WNW 5.8 mph - N/A   Clear
4:15 AM 27.5 °F 22.2 °F 17.1 °F 65% 30.42 in 10.0 mi NW 4.6 mph - N/A   Clear
4:35 AM 30.0 °F 25.2 °F 18.1 °F 61% 30.41 in 10.0 mi WNW 4.6 mph - N/A   Clear
4:55 AM 27.5 °F 21.1 °F 17.2 °F 65% 30.40 in 10.0 mi NW 5.8 mph - N/A   Clear
5:15 AM 30.0 °F 24.1 °F 19.4 °F 65% 30.40 in 10.0 mi WNW 5.8 mph - N/A   Clear
5:35 AM 30.0 °F 23.2 °F 19.8 °F 66% 30.40 in 10.0 mi WNW 6.9 mph - N/A   Clear
5:55 AM 30.0 °F 24.1 °F 19.4 °F 65% 30.39 in 10.0 mi West 5.8 mph - N/A   Clear
6:15 AM 30.0 °F 23.2 °F 19.9 °F 66% 30.39 in 10.0 mi WNW 6.9 mph - N/A   Clear
6:35 AM 27.5 °F 21.1 °F 18.3 °F 68% 30.39 in 10.0 mi WNW 5.8 mph - N/A   Clear
6:55 AM 24.8 °F 17.9 °F 16.7 °F 71% 30.39 in 10.0 mi WNW 5.8 mph - N/A   Clear
7:15 AM 27.5 °F 20.2 °F 19.0 °F 71% 30.39 in 10.0 mi WNW 6.9 mph - N/A   Clear
7:35 AM 30.0 °F 22.4 °F 19.9 °F 66% 30.39 in 10.0 mi WNW 8.1 mph - N/A   Clear
7:55 AM 32.2 °F 24.4 °F 19.4 °F 59% 30.38 in 10.0 mi WNW 9.2 mph - N/A   Clear
8:15 AM 34.7 °F 26.9 °F 19.0 °F 53% 30.38 in 10.0 mi WNW 10.4 mph - N/A   Clear
8:35 AM 38.8 °F 32.6 °F 19.8 °F 46% 30.38 in 10.0 mi WNW 9.2 mph - N/A   Clear
8:55 AM 41.7 °F 35.2 °F 18.3 °F 39% 30.38 in 10.0 mi WNW 11.5 mph - N/A   Clear
9:15 AM 43.0 °F 36.4 °F 17.6 °F 36% 30.37 in 10.0 mi WNW 12.7 mph - N/A   Clear
9:35 AM 47.3 °F - 18.1 °F 31% 30.36 in 10.0 mi West 13.8 mph - N/A   Clear
9:55 AM 50.0 °F - 18.5 °F 29% 30.35 in 10.0 mi WNW 13.8 mph 18.4 mph N/A   Clear
10:15 AM 50.0 °F - 17.8 °F 28% 30.34 in 10.0 mi WNW 13.8 mph - N/A   Clear
10:35 AM 50.0 °F - 16.3 °F 26% 30.34 in 10.0 mi West 13.8 mph 18.4 mph N/A   Clear
10:55 AM 52.2 °F - 16.9 °F 25% 30.32 in 10.0 mi WNW 15.0 mph 19.6 mph N/A   Clear
11:15 AM 52.9 °F - 16.2 °F 23% 30.31 in 10.0 mi WNW 15.0 mph 20.7 mph N/A   Clear
11:35 AM 54.9 °F - 16.3 °F 22% 30.30 in 10.0 mi WNW 13.8 mph 23.0 mph N/A   Clear
11:55 AM 54.9 °F - 15.8 °F 21% 30.29 in 10.0 mi NW 11.5 mph - N/A   Clear
12:15 PM 54.9 °F - 14.4 °F 20% 30.28 in 10.0 mi West 9.2 mph 18.4 mph N/A   Clear
12:35 PM 56.5 °F - 14.7 °F 19% 30.26 in 10.0 mi WNW 12.7 mph 21.9 mph N/A   Clear
12:55 PM 57.4 °F - 14.4 °F 18% 30.24 in 10.0 mi WNW 10.4 mph 19.6 mph N/A   Clear
1:15 PM 58.8 °F - 15.4 °F 18% 30.23 in 10.0 mi NW 9.2 mph 20.7 mph N/A   Clear
1:35 PM 58.8 °F - 15.6 °F 18% 30.21 in 10.0 mi WNW 11.5 mph 20.7 mph N/A   Clear
1:55 PM 60.4 °F - 16.0 °F 18% 30.20 in 10.0 mi West 12.7 mph 24.2 mph N/A   Clear
2:15 PM 61.2 °F - 16.0 °F 17% 30.18 in 10.0 mi NW 12.7 mph 17.3 mph N/A   Clear
2:35 PM 62.4 °F - 16.5 °F 17% 30.18 in 10.0 mi NW 16.1 mph 21.9 mph N/A   Clear
2:55 PM 62.8 °F - 16.3 °F 17% 30.16 in 10.0 mi NNW 9.2 mph 19.6 mph N/A   Clear
3:15 PM 62.4 °F - 15.3 °F 16% 30.14 in 10.0 mi WNW 6.9 mph - N/A   Clear
3:35 PM 63.9 °F - 15.3 °F 15% 30.13 in 10.0 mi West 9.2 mph 25.3 mph N/A   Clear
3:55 PM 62.8 °F - 14.7 °F 15% 30.11 in 10.0 mi WNW 10.4 mph 19.6 mph N/A   Clear
4:15 PM 66.4 °F - 15.4 °F 14% 30.10 in 10.0 mi WNW 15.0 mph 20.7 mph N/A   Clear
4:35 PM 67.5 °F - 15.8 °F 14% 30.09 in 10.0 mi WNW 17.3 mph 23.0 mph N/A   Clear
4:55 PM 67.5 °F - 15.1 °F 13% 30.07 in 10.0 mi West 13.8 mph - N/A   Clear
5:15 PM 67.5 °F - 14.9 °F 13% 30.06 in 10.0 mi WNW 15.0 mph 21.9 mph N/A   Clear
5:35 PM 68.7 °F - 14.5 °F 12% 30.05 in 10.0 mi NW 10.4 mph 19.6 mph N/A   Clear
5:55 PM 69.8 °F - 14.7 °F 12% 30.05 in 10.0 mi NW 13.8 mph 18.4 mph N/A   Clear
6:15 PM 68.0 °F - 13.5 °F 12% 30.04 in 10.0 mi WNW 13.8 mph 17.3 mph N/A   Clear
6:35 PM 69.4 °F - 14.0 °F 12% 30.04 in 10.0 mi WNW 8.1 mph - N/A   Clear
6:55 PM 70.0 °F - 14.4 °F 12% 30.03 in 10.0 mi NW 10.4 mph - N/A   Clear
7:15 PM 69.1 °F - 13.5 °F 12% 30.02 in 10.0 mi NW 9.2 mph - N/A   Clear
7:35 PM 67.5 °F - 11.8 °F 12% 30.02 in 10.0 mi NNW 10.4 mph - N/A   Clear
7:55 PM 64.9 °F - 11.7 °F 13% 30.02 in 10.0 mi NW 8.1 mph - N/A   Clear
8:15 PM 63.5 °F - 10.6 °F 13% 30.02 in 7.0 mi NNW 5.8 mph - N/A   Clear
8:35 PM 62.2 °F - 9.9 °F 13% 30.02 in 10.0 mi NW 3.5 mph - N/A   Clear
8:55 PM 60.3 °F - 9.5 °F 13% 30.02 in 10.0 mi Calm Calm - N/A   Clear
9:15 PM 56.1 °F - 11.3 °F 17% 30.04 in 10.0 mi Calm Calm - N/A   Clear
9:35 PM 54.9 °F - 15.1 °F 21% 30.04 in 10.0 mi WSW 3.5 mph - N/A   Clear
9:55 PM 51.1 °F - 11.8 °F 21% 30.04 in 10.0 mi WSW 3.5 mph - N/A   Clear
10:15 PM 50.0 °F - 12.0 °F 22% 30.04 in 10.0 mi WSW 4.6 mph - N/A   Clear
10:35 PM 50.0 °F - 14.7 °F 25% 30.05 in 10.0 mi WSW 3.5 mph - N/A   Clear
10:55 PM 50.0 °F - 13.8 °F 24% 30.05 in 10.0 mi Calm Calm - N/A   Clear
11:15 PM 50.0 °F - 13.3 °F 23% 30.04 in 10.0 mi Calm Calm - N/A   Clear
11:35 PM 50.0 °F - 13.6 °F 23% 30.05 in 10.0 mi ENE 11.5 mph - N/A   Clear
11:55 PM 52.3 °F - 16.0 °F 24% 30.05 in 10.0 mi East 12.7 mph - N/A   Clear